Chillicothe, MO

2:38 PM CDT on May 25, 2017 (GMT -0500)
Chillicothe

Weather History for KCDJ - December, 2012

Change the Weather History Date:

Saturday, December 15, 2012

  Actual Average (KIRK) Record (KIRK)
Temperature  
Mean Temperature 48 °F -  
Max Temperature 53 °F 36 °F 59 °F (1933)
Min Temperature 43 °F 22 °F -15 °F (1989)
Degree Days  
Heating Degree Days 17    
Moisture  
Dew Point 44 °F    
Average Humidity 83    
Maximum Humidity 97    
Minimum Humidity 74    
Precipitation  
Precipitation 0.37 in - - ()
Sea Level Pressure  
Sea Level Pressure 29.63 in    
Wind  
Wind Speed 9 mph (SSW)    
Max Wind Speed 14 mph    
Max Gust Speed 21 mph    
Averages and records for this station are not official NWS values.
T = Trace of Precipitation, MM = Missing Value Source: NWS Daily Summary

Daily Weather History Graph

Daily Weather History Graph

Search for Another Location

Airport or City:

Trip Planner

Search our weather history database for the weather conditions in past years. The results will help you decide how hot, cold, wet, or windy it might be!

Date:

Astronomy

Dec. 15, 2012 Rise Set
Actual Time 7:28 AM CST 4:50 PM CST
Civil Twilight 6:58 AM CST 5:21 PM CST
Nautical Twilight 6:24 AM CST 5:55 PM CST
Astronomical Twilight 5:51 AM CST 6:27 PM CST
Moon 9:22 AM CST (12/15) 7:55 PM CST (12/15)
Length of Visible Light 10h 22m
Length of Day
9h 21m
Waxing Crescent, 8% of the Moon is Illuminated
Dec 15
Waxing Crescent
Dec 19
First Quarter
Dec 28
Full
Jan 4
Last Quarter
Jan 11
New

Hourly Weather History & Observations

Time (CST) Temp. Windchill Dew Point Humidity Pressure Visibility Wind Dir Wind Speed Gust Speed Precip Events Conditions
12:52 AM 43.0 °F 36.8 °F 41.0 °F 93% 29.77 in - SSE 11.5 mph - 0.22 in   Unknown
1:52 AM 43.0 °F 36.0 °F 42.1 °F 97% 29.71 in - SSE 13.8 mph 20.7 mph 0.13 in   Unknown
2:52 AM 45.0 °F 39.7 °F 43.0 °F 93% 29.69 in - SSE 10.4 mph 18.4 mph N/A   Unknown
3:52 AM 45.0 °F 40.1 °F 42.1 °F 90% 29.64 in - SSE 9.2 mph 18.4 mph N/A   Unknown
4:52 AM 45.0 °F 39.7 °F 43.0 °F 93% 29.59 in - SE 10.4 mph 18.4 mph N/A   Unknown
5:52 AM 46.0 °F 42.5 °F 43.0 °F 89% 29.57 in - Variable 6.9 mph - N/A   Unknown
6:52 AM 46.9 °F - 44.1 °F 90% 29.56 in - SSE 4.6 mph - 0.01 in   Unknown
7:52 AM 48.9 °F - 46.9 °F 93% 29.55 in - South 10.4 mph - 0.01 in   Unknown
8:52 AM 50.0 °F - 46.9 °F 89% 29.54 in - South 10.4 mph - N/A   Unknown
9:52 AM 51.1 °F - 46.9 °F 86% 29.55 in - South 11.5 mph - N/A   Unknown
10:52 AM 53.1 °F - 46.0 °F 77% 29.55 in - SSW 6.9 mph - N/A   Unknown
11:52 AM 53.1 °F - 45.0 °F 74% 29.56 in - SW 8.1 mph - N/A   Unknown
12:52 PM 53.1 °F - 46.0 °F 77% 29.57 in - SW 9.2 mph - N/A   Unknown
1:52 PM 53.1 °F - 46.0 °F 77% 29.57 in - Variable 6.9 mph - N/A   Unknown
2:52 PM 52.0 °F - 45.0 °F 77% 29.59 in - SW 5.8 mph - N/A   Unknown
3:52 PM 52.0 °F - 45.0 °F 77% 29.62 in - SW 9.2 mph 17.3 mph N/A   Unknown
4:52 PM 52.0 °F - 44.1 °F 74% 29.65 in - SW 8.1 mph - N/A   Unknown
5:52 PM 51.1 °F - 44.1 °F 77% 29.67 in - WSW 5.8 mph - N/A   Unknown
6:52 PM 50.0 °F - 44.1 °F 80% 29.67 in - West 5.8 mph - N/A   Unknown
7:52 PM 50.0 °F - 44.1 °F 80% 29.69 in - Variable 4.6 mph - N/A   Unknown
8:52 PM 48.9 °F - 42.1 °F 77% 29.68 in - West 9.2 mph - N/A   Unknown
9:52 PM 46.9 °F - 39.9 °F 77% 29.70 in - West 6.9 mph - N/A   Unknown
10:52 PM 46.0 °F 41.9 °F 39.9 °F 79% 29.71 in - West 8.1 mph - N/A   Unknown
11:52 PM 44.1 °F 39.0 °F 37.9 °F 79% 29.73 in - West 9.2 mph - N/A   Unknown